Location: Borojevi?i
(45.0486°N, 16.2297°E)
Time: 17:08:07
(UTC+00:00)

Cosmos 2278 - Pass Details

Date: 08 August 2020
Orbit: 839 x 853 km, 71.1° (Epoch: 24 September)

Event Time Altitude Azimuth Distance (km) Brightness Sun altitude
Rises 20:05:25 0° 334° (NNW) 3,432 8.3 -17.3°
Reaches altitude 10° 20:07:53 10° 335° (NNW) 2,492 7.3 -17.6°
Maximum altitude 20:13:38 86° 64° (ENE) 860 3.7 -18.3°
Enters shadow 20:16:24 32° 153° (SSE) 1,422 4.3 -18.6°
